{"data":{"norad_id":66035,"epoch":"2026-05-25T04:33:58.069152Z","epoch_age_seconds":55006,"freshness":"FRESH","line1":"1 66035U 25233C   26145.19025543  .00000137  00000+0  19402-3 0  9991","line2":"2 66035  89.0030  45.5342 0002168  68.9133 291.2249 13.51007670 30071","mean_motion":13.5100767,"eccentricity":0.0002168,"inclination_deg":89.003,"raan_deg":45.5342,"arg_perigee_deg":68.9133,"mean_anomaly_deg":291.2249,"bstar":0.00019402,"rev_number":3007,"period_min":106.58710768089,"perigee_km":1066.9389581814,"apogee_km":1070.1678431391,"semimajor_km":7446.6904006603,"source":"CELESTRAK","updated_at":"2026-05-25T13:38:05.919235Z"}}